1289088030713,0.586311
1289088090713,0.578564
1289088150713,0.585095
1289088210713,0.596973
1289088270713,0.602765
1289088330713,0.601710
1289088390713,0.600050
1289088450713,0.596964
1289088510713,0.596836
1289088570713,0.592213
1289088630713,0.614959
1289088690713,0.598192
1289088750713,0.600911
1289088810713,0.602391
1289088870713,0.607867
1289088930713,0.610172
1289088990713,0.608130
1289089050713,0.607874
1289089110713,0.603553
1289089170713,0.605222
1289089230713,0.603885
1289089290713,0.602277
1289089350713,0.604117
1289089410713,0.601652
1289089470713,0.607345
1289089530713,0.606714
1289089590713,0.604440
1289089650713,0.602083
1289089710713,0.606522
1289089770713,0.602304
1289089830713,0.604845
1289089890713,0.596781
1289089950713,0.604805
1289090010713,0.605866
1289090070713,0.611496
1289090130713,0.605838
1289090190713,0.602060
1289090250713,0.607618
1289090310713,0.604132
1289090370713,0.597330
1289090430713,0.597035
1289090490713,0.600592
1289090550713,0.596381
1289090610713,0.604977
1289090670713,0.592429
1289090730713,0.599576
1289090790713,0.597732
1289090850713,0.602691
1289090910713,0.597636
1289090970713,0.595169
1289091030713,0.586147
1289091090713,0.587009
1289091150713,0.590216
1289091210713,0.591190
1289091270713,0.582841
1289091330713,0.589480
1289091390713,0.588647
1289091450713,0.583037
1289091510713,0.580557
1289091570713,0.587605
1289091630723,0.584724
1289091690723,0.586221
1289091750723,0.583918
1289091810723,0.583760
1289091870723,0.586234
1289091930723,0.574863
1289091990723,0.581469
1289092050723,0.582616
1289092110723,0.582369
1289092170723,0.574766
1289092230723,0.576215
1289092290723,0.578063
1289092350723,0.581969
1289092410723,0.572264
1289092470723,0.575938
1289092530723,0.578452
1289092590723,0.576605
1289092650723,0.573450
1289092710723,0.575046
1289092770723,0.574293
1289092830723,0.573817
1289092890723,0.574152
1289092950723,0.571152
1289093010723,0.575415
1289093070723,0.577990
1289093130723,0.574498
1289093190723,0.575624
1289093250723,0.575069
1289093310723,0.576397
1289093370723,0.576433
1289093430723,0.578891
1289093490723,0.579953
1289093550723,0.578589
1289093610723,0.583178
1289093670723,0.581606
1289093730723,0.586521
1289093790723,0.599353
1289093850723,0.613054
1289093910723,0.644213
1289093970723,0.675570
1289094030723,0.706124
1289094090723,0.724697
1289094150723,0.732731
1289094210723,0.742460
1289094270723,0.742328
1289094330723,0.741115
1289094390723,0.741731
1289094450723,0.737627
1289094510723,0.734302
1289094570723,0.723491
1289094630723,0.717864
1289094690723,0.720267
1289094750723,0.715270
1289094810723,0.711247
1289094870723,0.712173
1289094930723,0.707055
1289094990723,0.706440
1289095050723,0.706827
1289095110723,0.708295
1289095170723,0.706827
1289095230733,0.694977
1289095290733,0.696680
1289095350733,0.696068
1289095410733,0.687356
1289095470733,0.684194
1289095530733,0.683800
1289095590733,0.679755
1289095650733,0.672936
1289095710733,0.669984
1289095770733,0.659981
1289095830733,0.659027
1289095890733,0.653064
1289095950733,0.646756
1289096010733,0.647699
1289096070733,0.647885
1289096130733,0.638140
1289096190733,0.634615
1289096250733,0.628486
1289096310733,0.628076
1289096370733,0.626161
1289096430733,0.621314
1289096490733,0.622045
1289096550733,0.612039
1289096610733,0.643134
1289096670733,0.610428
1289096730733,0.606075
1289096790733,0.607594
1289096850733,0.607690
1289096910733,0.601673
1289096970733,0.600329
1289097030733,0.596656
1289097090733,0.594243
1289097150733,0.589776
1289097210733,0.598652
1289097270733,0.590181
1289097330733,0.594783
1289097390733,0.593485
1289097450733,0.587159
1289097510733,0.585170
1289097570733,0.584780
1289097630733,0.586494
1289097690733,0.583737
1289097750733,0.579132
1289097810733,0.581676
1289097870733,0.580604
1289097930733,0.585922
1289097990733,0.581029
1289098050733,0.576133
1289098110733,0.577460
1289098170733,0.580365
1289098230733,0.582479
1289098290733,0.584780
1289098350733,0.576810
1289098410733,0.579829
1289098470733,0.578637
1289098530733,0.577178
1289098590733,0.574231
1289098650733,0.571346
1289098710733,0.580191
1289098770733,0.568656
1289098830743,0.573535
1289098890743,0.575609
1289098950743,0.575547
1289099010743,0.574513
1289099070743,0.570262
1289099130743,0.574596
1289099190743,0.568474
1289099250743,0.575734
1289099310743,0.576676
1289099370743,0.571880
1289099430743,0.576322
1289099490743,0.569287
1289099550743,0.571139
1289099610743,0.569701
1289099670743,0.570156
1289099730743,0.572944
1289099790743,0.570270
1289099850743,0.567650
1289099910743,0.569171
1289099970743,0.569995
1289100030743,0.568539
1289100090743,0.564738
1289100150743,0.560745
1289100210743,0.569330
1289100270743,0.571176
1289100330743,0.568268
1289100390743,0.576868
1289100450743,0.568871
1289100510743,0.569827
1289100570743,0.573346
1289100630743,0.564464
1289100690743,0.571433
1289100750743,0.572542
1289100810743,0.570251
1289100870743,0.571953
1289100930743,0.572344
1289100990743,0.570283
1289101050743,0.578817
1289101110743,0.572892
1289101170743,0.571876
1289101230743,0.565975
1289101290743,0.565748
1289101350743,0.569749
1289101410743,0.563704
1289101470743,0.570381
1289101530743,0.575176
1289101590743,0.569301
1289101650743,0.578716
1289101710743,0.578636
1289101770743,0.575311
1289101830743,0.575096
1289101890743,0.568382
1289101950743,0.575340
1289102010743,0.578224
1289102070743,0.571254
1289102130743,0.569450
1289102190743,0.581398
1289102250743,0.578383
1289102310743,0.577347
1289102370743,0.573888
1289102430753,0.583837
1289102490753,0.579704
1289102550753,0.576037
1289102610753,0.581340
1289102670753,0.579856
1289102730753,0.583318
1289102790753,0.582589
1289102850753,0.576430
1289102910753,0.575284
1289102970753,0.579073
1289103030753,0.571929
1289103090753,0.575520
1289103150753,0.575933
1289103210753,0.579411
1289103270753,0.577181
1289103330753,0.574857
1289103390753,0.577908
1289103450753,0.582481
1289103510753,0.580942
1289103570753,0.579450
1289103630753,0.582564
1289103690753,0.577106
1289103750753,0.575423
1289103810753,0.579032
1289103870753,0.575332
1289103930753,0.570659
1289103990753,0.577494
1289104050753,0.572405
1289104110753,0.572227
1289104170753,0.574307
1289104230753,0.574083
1289104290753,0.573861
1289104350753,0.570239
1289104410753,0.570458
1289104470753,0.573785
1289104530753,0.575561
1289104590753,0.571979
1289104650753,0.572727
1289104710753,0.573196
1289104770753,0.573990
1289104830753,0.575074
1289104890753,0.575169
1289104950753,0.574856
1289105010753,0.572483
1289105070753,0.573438
1289105130753,0.573863
1289105190753,0.574881
1289105250753,0.571345
1289105310753,0.572845
1289105370753,0.577338
1289105430753,0.576522
1289105490753,0.577774
1289105550753,0.571151
1289105610753,0.580167
1289105670753,0.581679
1289105730753,0.582912
1289105790753,0.587265
1289105850753,0.576026
1289105910753,0.580500
1289105970753,0.575189
1289106030763,0.579599
1289106090763,0.577313
1289106150763,0.573794
1289106210763,0.577980
1289106270763,0.580532
1289106330763,0.584440
1289106390763,0.577835
1289106450763,0.581245
1289106510763,0.577562
1289106570763,0.585319
1289106630763,0.578623
1289106690763,0.574009
1289106750763,0.575327
1289106810763,0.578927
1289106870763,0.580375
1289106930763,0.581342
1289106990763,0.576343
1289107050763,0.575398
1289107110763,0.575342
1289107170763,0.580161
1289107230763,0.575348
1289107290763,0.575652
1289107350763,0.581365
1289107410763,0.573287
1289107470763,0.577605
1289107530763,0.576425
1289107590763,0.573468
1289107650763,0.572276
1289107710763,0.579132
1289107770763,0.567916
1289107830763,0.574528
1289107890763,0.569244
1289107950763,0.575298
1289108010763,0.574944
1289108070763,0.578720
1289108130763,0.573496
1289108190763,0.572542
1289108250763,0.566777
1289108310763,0.570602
1289108370763,0.580086
1289108430763,0.573432
1289108490763,0.574657
1289108550763,0.575774
1289108610763,0.571676
1289108670763,0.573540
1289108730763,0.571493
1289108790763,0.564790
1289108850763,0.571763
1289108910763,0.565785
1289108970763,0.569353
1289109030763,0.568736
1289109090763,0.570132
1289109150763,0.569051
1289109210763,0.567100
1289109270763,0.571802
1289109330763,0.564597
1289109390763,0.567424
1289109450763,0.565619
1289109510763,0.565965
1289109570763,0.572335
1289109630774,0.568413
1289109690774,0.568291
1289109750774,0.563691
1289109810774,0.569698
1289109870774,0.563856
1289109930774,0.565482
1289109990774,0.569378
1289110050774,0.563188
1289110110774,0.559124
1289110170774,0.568426
1289110230774,0.564463
1289110290774,0.563929
1289110350774,0.566747
1289110410774,0.563717
1289110470774,0.561029
1289110530774,0.559881
1289110590774,0.566011
1289110650774,0.564939
1289110710774,0.563651
1289110770774,0.564744
1289110830774,0.564864
1289110890774,0.569204
1289110950774,0.560862
1289111010774,0.562603
1289111070774,0.562351
1289111130774,0.564091
1289111190774,0.562762
1289111250774,0.560838
1289111310774,0.563305
1289111370774,0.564672
1289111430774,0.567377
1289111490774,0.560794
1289111550774,0.564954
1289111610774,0.563307
1289111670774,0.564918
1289111730774,0.563679
1289111790774,0.559352
1289111850774,0.565557
1289111910774,0.562077
1289111970774,0.564271
1289112030774,0.566741
1289112090774,0.563847
1289112150774,0.562360
1289112210774,0.562314
1289112270774,0.565809
1289112330774,0.566909
1289112390774,0.564000
1289112450774,0.565363
1289112510774,0.563946
1289112570774,0.563497
1289112630774,0.565252
1289112690774,0.564700
1289112750774,0.562782
1289112810774,0.570899
1289112870774,0.573261
1289112930774,0.567094
1289112990774,0.565526
1289113050774,0.565193
1289113110774,0.568070
1289113170774,0.567919
1289113230784,0.560926
1289113290784,0.567828
1289113350784,0.569902
1289113410784,0.565711
1289113470784,0.569137
1289113530784,0.560262
1289113590784,0.567288
1289113650784,0.566711
1289113710784,0.565991
1289113770784,0.568073
1289113830784,0.561499
1289113890784,0.565705
1289113950784,0.565772
1289114010784,0.566573
1289114070784,0.559914
1289114130784,0.568873
1289114190784,0.566522
1289114250784,0.564320
1289114310784,0.564326
1289114370784,0.570491
1289114430784,0.566194
1289114490784,0.570352
1289114550784,0.564376
1289114610784,0.562551
1289114670784,0.561648
1289114730784,0.562525
1289114790784,0.563435
1289114850784,0.564908
1289114910784,0.564602
1289114970784,0.566176
1289115030784,0.563828
1289115090784,0.563909
1289115150784,0.562837
1289115210784,0.562976
1289115270784,0.566413
1289115330784,0.565966
1289115390784,0.563965
1289115450784,0.560940
1289115510784,0.565305
1289115570784,0.560793
1289115630784,0.557741
1289115690784,0.568425
1289115750784,0.562063
1289115810784,0.563753
1289115870784,0.563401
1289115930784,0.568054
1289115990784,0.570199
1289116050784,0.563510
1289116110784,0.564827
1289116170784,0.568858
1289116230784,0.560107
1289116290784,0.561173
1289116350784,0.569127
1289116410784,0.564956
1289116470784,0.570951
1289116530784,0.569911
1289116590784,0.564100
1289116650784,0.572593
1289116710784,0.565926
1289116770784,0.569546
1289116830795,0.567698
1289116890795,0.560649
1289116950795,0.566657
1289117010795,0.568676
1289117070795,0.564965
1289117130795,0.559460
1289117190795,0.561677
1289117250795,0.566530
1289117310795,0.563576
1289117370795,0.560698
1289117430795,0.564846
1289117490795,0.559750
1289117550795,0.567304
1289117610795,0.566686
1289117670795,0.562480
1289117730795,0.560865
1289117790795,0.565133
1289117850795,0.562989
1289117910795,0.567995
1289117970795,0.565014
1289118030795,0.563633
1289118090795,0.562237
1289118150795,0.567217
1289118210795,0.556366
1289118270795,0.563534
1289118330795,0.559216
1289118390795,0.566809
1289118450795,0.564429
1289118510795,0.561627
1289118570795,0.559488
1289118630795,0.558418
1289118690795,0.570776
1289118750795,0.563401
1289118810795,0.576420
1289118870795,0.590536
1289118930795,0.558763
1289118990795,0.569743
1289119050795,0.559715
1289119110795,0.568454
1289119170795,0.560297
1289119230795,0.562341
1289119290795,0.566754
1289119350795,0.555765
1289119410795,0.558259
1289119470795,0.562623
1289119530795,0.563693
1289119590795,0.556863
1289119650795,0.563757
1289119710795,0.561215
1289119770795,0.560622
1289119830795,0.565363
1289119890795,0.559628
1289119950795,0.559488
1289120010795,0.554820
1289120070795,0.561105
1289120130795,0.560127
1289120190795,0.561558
1289120250795,0.559487
1289120310795,0.562860
1289120370795,0.564348
1289120430806,0.567410
1289120490806,0.557977
1289120550806,0.564492
1289120610806,0.560774
1289120670806,0.562258
1289120730806,0.576527
1289120790806,0.567322
1289120850806,0.562558
1289120910806,0.560447
1289120970806,0.566161
1289121030806,0.564132
1289121090806,0.559402
1289121150806,0.559083
1289121210806,0.556062
1289121270806,0.568581
1289121330806,0.558155
1289121390806,0.561372
1289121450806,0.560505
1289121510806,0.558289
1289121570806,0.566177
1289121630806,0.560222
1289121690806,0.558307
1289121750806,0.563979
1289121810806,0.562735
1289121870806,0.565775
1289121930806,0.571008
1289121990806,0.555976
1289122050806,0.563410
1289122110806,0.564123
1289122170806,0.562164
1289122230806,0.562621
1289122290806,0.562726
1289122350806,0.560169
1289122410806,0.561877
1289122470806,0.562441
1289122530806,0.565627
1289122590806,0.560756
1289122650806,0.559979
1289122710806,0.558965
1289122770806,0.563597
1289122830806,0.562471
1289122890806,0.559917
1289122950806,0.558738
1289123010806,0.564286
1289123070806,0.561138
1289123130806,0.560122
1289123190806,0.559572
1289123250806,0.559187
1289123310806,0.562100
1289123370806,0.556891
1289123430806,0.560508
1289123490806,0.567479
1289123550806,0.568893
1289123610806,0.563687
1289123670806,0.558504
1289123730806,0.561348
1289123790806,0.559382
1289123850806,0.558696
1289123910806,0.556256
1289123970806,0.558705
1289124030817,0.558544
1289124090817,0.562104
1289124150817,0.559595
1289124210817,0.564346
1289124270817,0.560926
1289124330817,0.555797
1289124390817,0.566939
1289124450817,0.557621
1289124510817,0.562980
1289124570817,0.562293
1289124630817,0.558512
1289124690817,0.565552
1289124750817,0.557668
1289124810817,0.560092
1289124870817,0.560697
1289124930817,0.556281
1289124990817,0.565167
1289125050817,0.552646
1289125110817,0.560598
1289125170817,0.561354
1289125230817,0.561499
1289125290817,0.556367
1289125350817,0.558856
1289125410817,0.560322
1289125470817,0.566283
1289125530817,0.563563
1289125590817,0.562317
1289125650817,0.560221
1289125710817,0.562478
1289125770817,0.562792
1289125830817,0.558589
1289125890817,0.562367
1289125950817,0.568875
1289126010817,0.561847
1289126070817,0.561294
1289126130817,0.561047
1289126190817,0.569927
1289126250817,0.564614
1289126310817,0.563256
1289126370817,0.560949
1289126430817,0.565182
1289126490817,0.565374
1289126550817,0.564159
1289126610817,0.565946
1289126670817,0.567835
1289126730817,0.560164
1289126790817,0.562245
1289126850817,0.564023
1289126910817,0.563471
1289126970817,0.558844
1289127030817,0.561059
1289127090817,0.561417
1289127150817,0.562753
1289127210817,0.563661
1289127270817,0.561889
1289127330817,0.563215
1289127390817,0.562400
1289127450817,0.561627
1289127510817,0.564128
1289127570817,0.563124
1289127630828,0.561150
1289127690828,0.567997
1289127750828,0.557685
1289127810828,0.561646
1289127870828,0.558102
1289127930828,0.561942
1289127990828,0.565535
1289128050828,0.561401
1289128110828,0.565022
1289128170828,0.563354
1289128230828,0.568593
1289128290828,0.567226
1289128350828,0.562098
1289128410828,0.561278
1289128470828,0.568266
1289128530828,0.562390
1289128590828,0.564422
1289128650828,0.569656
1289128710828,0.565057
1289128770828,0.568584
1289128830828,0.564700
1289128890828,0.569651
1289128950828,0.569058
1289129010828,0.566932
1289129070828,0.568877
1289129130828,0.559998
1289129190828,0.564078
1289129250828,0.562466
1289129310828,0.563159
1289129370828,0.559973
1289129430828,0.562435
1289129490828,0.559876
1289129550828,0.566957
1289129610828,0.565646
1289129670828,0.565090
1289129730828,0.562572
1289129790828,0.563601
1289129850828,0.559910
1289129910828,0.558888
1289129970828,0.565487
1289130030828,0.559158
1289130090828,0.559867
1289130150828,0.565173
1289130210828,0.565075
1289130270828,0.573214
1289130330828,0.568100
1289130390828,0.563681
1289130450828,0.568599
1289130510828,0.565846
1289130570828,0.560641
1289130630828,0.567328
1289130690828,0.565376
1289130750828,0.570299
1289130810828,0.565751
1289130870828,0.565913
1289130930828,0.568546
1289130990828,0.562384
1289131050828,0.562418
1289131110828,0.558466
1289131170828,0.567521
1289131230840,0.565141
1289131290840,0.568279
1289131350840,0.567574
1289131410840,0.568942
1289131470840,0.557917
1289131530840,0.562794
1289131590840,0.564978
1289131650840,0.563458
1289131710840,0.563779
1289131770840,0.568116
1289131830840,0.564399
1289131890840,0.562065
1289131950840,0.563053
1289132010840,0.566740
1289132070840,0.562970
1289132130840,0.567189
1289132190840,0.565829
1289132250840,0.564714
1289132310840,0.563856
1289132370840,0.562639
1289132430840,0.565799
1289132490840,0.564948
1289132550840,0.568494
1289132610840,0.564808
1289132670840,0.560576
1289132730840,0.568419
1289132790840,0.563581
1289132850840,0.562486
1289132910840,0.561846
1289132970840,0.563670
1289133030840,0.562962
1289133090840,0.564196
1289133150840,0.566425
1289133210840,0.561562
1289133270840,0.569919
1289133330840,0.559940
1289133390840,0.562941
1289133450840,0.561566
1289133510840,0.567331
1289133570840,0.564340
1289133630840,0.571586
1289133690840,0.566907
1289133750840,0.565961
1289133810840,0.566061
1289133870840,0.564580
1289133930840,0.568170
1289133990840,0.564288
1289134050840,0.562546
1289134110840,0.569490
1289134170840,0.561464
1289134230840,0.564055
1289134290840,0.568306
1289134350840,0.565014
1289134410840,0.566586
1289134470840,0.572271
1289134530840,0.567901
1289134590840,0.564246
1289134650840,0.562240
1289134710840,0.568556
1289134770840,0.569160
1289134830851,0.563010
1289134890851,0.567189
1289134950851,0.568949
1289135010851,0.567330
1289135070851,0.566939
1289135130851,0.565680
1289135190851,0.568155
1289135250851,0.569910
1289135310851,0.564866
1289135370851,0.563035
1289135430851,0.564338
1289135490851,0.569620
1289135550851,0.566999
1289135610851,0.566571
1289135670851,0.570731
1289135730851,0.572416
1289135790851,0.574201
1289135850851,0.572743
1289135910851,0.571376
1289135970851,0.570193
1289136030851,0.576759
1289136090851,0.581609
1289136150851,0.578414
1289136210851,0.584864
1289137410851,0.592523
1289137470851,0.587585
1289137530851,0.600648
1289137590851,0.602259
1289137650851,0.600606
1289137710851,0.604431
1289137770851,0.604174
1289137830851,0.602476
1289137890851,0.601337
1289137950851,0.603867
1289138010851,0.600394
1289138070851,0.600251
1289138130851,0.602887
1289138190851,0.597508
1289138250851,0.596919
1289138310851,0.601314
1289138370851,0.599265
1289138430863,0.605628
1289138490863,0.604548
1289138550863,0.606509
1289138610863,0.606679
1289138670863,0.609523
1289138730863,0.609289
1289138790863,0.605742
1289138850863,0.601460
1289138910863,0.614838
1289138970863,0.602255
1289139030863,0.599096
1289139090863,0.608806
1289139150863,0.608166
1289139210863,0.607557
1289139270863,0.608041
1289139330863,0.602159
1289139390863,0.601282
1289139450863,0.597665
1289139510863,0.600437
1289139570863,0.597604
1289139630863,0.600964
1289139690863,0.600435
1289139750863,0.600648
1289139810863,0.601767
1289139870863,0.591062
1289139930863,0.597866
1289139990863,0.596330
1289140050863,0.592294
1289140110863,0.597034
1289140170863,0.592920
1289140230863,0.597414
1289140290863,0.590934
1289140350863,0.596243
1289140410863,0.594303
1289140470863,0.591809
1289140530863,0.597381
1289140590863,0.591325
1289140650863,0.593070
1289140710863,0.589744
1289140770863,0.586630
1289140830863,0.588359
1289140890863,0.583359
1289140950863,0.586542
1289141010863,0.585429
1289141070863,0.587706
1289141130863,0.582386
1289141190863,0.585499
1289141250863,0.584691
1289141310863,0.584167
1289141370863,0.581251
1289141430863,0.590015
1289141490863,0.576848
1289141550863,0.582866
1289141610863,0.583732
1289141670863,0.585307
1289141730863,0.584213
1289141790863,0.581140
1289141850863,0.584312
1289141910863,0.580659
1289141970863,0.576441
1289142030876,0.579341
1289142090876,0.576397
1289142150876,0.579659
1289142210876,0.581026
1289142270876,0.578984
1289142330876,0.577043
1289142390876,0.579329
1289142450876,0.574508
1289142510876,0.577578
1289142570876,0.578010
1289142630876,0.575191
1289142690876,0.575916
1289142750876,0.571758
1289142810876,0.576380
1289142870876,0.579242
1289142930876,0.577854
1289142990876,0.577201
1289143050876,0.580646
1289143110876,0.578306
1289143170876,0.577587
1289143230876,0.573080
1289143290876,0.577291
1289143350876,0.575919
1289143410876,0.578993
1289143470876,0.580129
1289143530876,0.573209
1289143590876,0.576046
1289143650876,0.583910
1289143710876,0.581300
1289143770876,0.572993
1289143830876,0.576479
1289143890876,0.580999
1289143950876,0.579807
1289144010876,0.574922
1289144070876,0.576441
1289144130876,0.571742
1289144190876,0.580180
1289144250876,0.571128
1289144310876,0.571080
1289144370876,0.573207
1289144430876,0.581058
1289144490876,0.576371
1289144550876,0.574509
1289144610876,0.572578
1289144670876,0.576575
1289144730876,0.569755
1289144790876,0.573547
1289144850876,0.576182
1289144910876,0.575543
1289144970876,0.573935
1289145030876,0.574603
1289145090876,0.575231
1289145150876,0.572838
1289145210876,0.569206
1289145270876,0.569541
1289145330876,0.572282
1289145390876,0.578428
1289145450876,0.567280
1289145510876,0.566951
1289145570876,0.571895
1289145630888,0.576986
1289145690888,0.573261
1289145750888,0.574935
1289145810888,0.573417
1289145870888,0.571688
1289145930888,0.572689
1289145990888,0.573181
1289146050888,0.575534
1289146110888,0.569764
1289146170888,0.574255
1289146230888,0.569053
1289146290888,0.576111
1289146350888,0.576926
1289146410888,0.576227
1289146470888,0.574836
1289146530888,0.571000
1289146590888,0.576231
1289146650888,0.564338
1289146710888,0.577680
1289146770888,0.576751
1289146830888,0.575325
1289146890888,0.574149
1289146950888,0.576769
1289147010888,0.575882
1289147070888,0.576642
1289147130888,0.574372
1289147190888,0.577382
1289147250888,0.576765
1289147310888,0.571727
1289147370888,0.579737
1289147430888,0.581924
1289147490888,0.582507
1289147550888,0.582384
1289147610888,0.582478
1289147670888,0.580920
1289147730888,0.573377
1289147790888,0.578728
1289147850888,0.583281
1289147910888,0.581471
1289147970888,0.580130
1289148030888,0.577609
1289148090888,0.582759
1289148150888,0.576864
1289148210888,0.575344
1289148270888,0.574072
1289148330888,0.577267
1289148390888,0.576634
1289148450888,0.576606
1289148510888,0.577981
1289148570888,0.575617
1289148630888,0.577205
1289148690888,0.573919
1289148750888,0.583558
1289148810888,0.575358
1289148870888,0.575527
1289148930888,0.573893
1289148990888,0.581478
1289149050888,0.575346
1289149110888,0.577635
1289149170888,0.578717
1289149230900,0.574991
1289149290900,0.577287
1289149350900,0.577275
1289149410900,0.572979
1289149470900,0.574906
1289149530900,0.575413
1289149590900,0.574300
1289149650900,0.571678
1289149710900,0.573213
1289149770900,0.576155
1289149830900,0.569347
1289149890900,0.569544
1289149950900,0.573078
1289150010900,0.575176
1289150070900,0.569968
1289150130900,0.571172
1289150190900,0.571764
1289150250900,0.568629
1289150310900,0.575977
1289150370900,0.569869
1289150430900,0.572999
1289150490900,0.576096
1289150550900,0.576660
1289150610900,0.575635
1289150670900,0.572739
1289150730900,0.568305
1289150790900,0.573187
1289150850900,0.567587
1289150910900,0.572017
1289150970900,0.567632
1289151030900,0.570528
1289151090900,0.568487
1289151150900,0.562199
1289151210900,0.577830
1289151270900,0.569926
1289151330900,0.569100
1289151390900,0.582172
1289151450900,0.571480
1289151510900,0.568286
1289151570900,0.569922
1289151630900,0.570970
1289151690900,0.569940